Starlink 32805

operational
NORAD ID: 62740 Int'l Des: 2025-014 Owner: SPXS Country: US Constellation: starlink
LEOCIRCULAR

Über Starlink 32805

Beschreibung wird geladen...

Live-Position

3D-Globus wird geladen...

Nächste Überflüge

Höhenverlauf

Altitude vs Time

uPlot chart will show altitude changes over time

Zweizeiliger Elementsatz

1 62740U 25014F 25305.99455616 .00033760 00000-0 12301-2 0 9999
2 62740 43.0017 155.9273 0001971 275.4255 84.6372 15.27596179 43724
Epoch: 1. Nov. 2025 • Age: 27 hours

Aktueller Status

Höhe 484.0 km
Geschwindigkeit 7.63 km/s
Subsatellitenpunkt 27.05°N, 153.36°W
Startdatum 21. Jan. 2025
Alter 0.7 years
Typ internet

Technische Details

Klassifizierung Payload
Masse 730.00 kg
Trockenmasse 700.00 kg
Gesamtmasse 730.00 kg
Länge 0.30 m
Durchmesser 4.10 m
Spannweite 29.00 m
Form Box + pan
Hersteller SPXS
Bus-Typ Starlink V2M
Phasenstatus In Orbit
Besitzer/Staat SPXS/US

Große Konstellationen

Loading constellations...